Temperature
28 29 29 30 30 29 29 29 28 28 28 27 27 26 26 24 23 22 21 20 20 19 19 18 18 18 18 18 18 18 18 18 17 17 17 17 16 16 16 15 15 15 14 14
29 29 30 30 29 29 29 29 29 28 27 27 27 26 26 25 23 22 22 21 20 19 19 18 18 17 17 18 18 18 18 17 17 17 17 17 16 16 16 15 15 15 14 14
29 30 30 29 29 29 29 29 29 28 27 27 26 27 26 25 23 22 22 21 21 20 19 18 18 17 17 17 18 18 17 17 17 17 17 16 16 16 15 15 15 15 14 14
29 30 29 29 29 29 29 29 28 27 27 28 27 27 26 26 25 24 23 22 21 20 19 18 18 17 17 17 17 18 18 18 18 17 17 16 16 16 16 15 15 15 14 14
29 30 29 29 29 29 29 28 28 27 27 27 27 27 28 26 26 25 24 22 21 20 19 19 18 18 18 17 17 17 18 18 18 17 17 16 16 16 16 15 15 15 14 14
30 30 30 29 29 28 28 27 27 27 28 27 27 27 27 28 26 26 25 23 21 21 20 19 18 18 18 17 17 17 18 18 18 17 17 17 16 16 16 16 15 15 14 14
29 30 30 29 29 28 28 28 28 27 27 27 27 27 27 28 27 27 25 24 22 21 20 19 18 18 18 18 18 17 18 18 18 17 17 17 17 16 16 16 15 15 15 14
29 29 30 29 29 29 28 28 27 26 27 28 27 27 28 27 26 26 25 24 23 22 21 20 19 19 18 18 18 18 18 18 18 18 17 17 17 16 16 16 16 15 15 15
29 29 29 29 29 29 28 28 29 28 27 27 28 28 28 27 27 26 25 24 23 23 22 21 20 19 19 18 18 18 18 18 18 18 18 17 17 17 16 16 16 15 15 14
30 28 29 28 28 27 28 28 28 27 26 26 27 27 28 27 27 27 26 25 24 23 22 22 21 20 19 19 19 18 18 18 18 18 18 18 18 17 17 16 16 15 15 15
29 28 28 28 27 28 27 27 27 28 27 26 26 27 28 27 27 27 27 26 25 24 23 22 22 21 20 20 19 19 19 19 19 18 18 18 18 18 17 17 16 16 15 15
28 28 28 28 28 28 28 28 27 26 26 26 26 27 28 28 28 27 27 26 25 24 24 23 22 22 21 21 20 19 19 19 19 19 19 19 18 18 18 17 17 16 16 15
27 27 26 27 27 27 27 28 27 27 27 27 26 27 28 28 27 26 26 26 25 24 24 23 23 22 22 21 21 20 20 19 19 19 19 19 19 18 18 17 17 17 16 16
27 27 27 27 27 28 27 27 27 27 27 27 27 27 28 27 27 26 25 25 24 24 23 23 23 22 22 21 21 20 20 20 19 19 20 19 19 19 18 18 17 17 16 16
26 26 27 28 28 28 28 28 27 27 27 27 27 27 27 26 25 25 24 24 24 23 23 22 22 22 21 21 20 20 20 20 20 20 20 19 19 19 18 18 17 17 17 16
25 26 26 26 27 27 27 27 27 27 27 27 27 27 26 24 24 23 23 23 23 22 22 22 21 21 21 20 20 20 20 20 20 20 20 19 19 19 19 18 18 17 17 17
26 25 25 26 27 26 26 27 27 27 27 27 26 26 25 24 22 21 21 21 21 21 20 20 20 20 20 20 20 20 19 19 19 19 19 19 19 19 19 18 18 17 17 17
25 25 25 26 25 24 27 27 27 26 26 26 25 25 24 22 20 19 19 19 19 19 19 19 19 19 19 19 19 19 19 18 18 18 18 18 19 18 18 18 17 17 17 17
24 24 25 25 25 25 26 26 26 25 25 25 24 24 22 21 21 19 17 17 17 17 17 17 18 18 18 18 18 18 18 17 17 17 17 17 17 17 17 17 17 17 17 16
23 23 25 24 24 24 25 25 24 25 24 24 24 23 22 22 23 20 17 16 16 16 16 16 16 17 17 17 17 17 17 17 16 16 16 16 16 16 16 16 16 16 16 16
23 23 24 24 24 25 25 24 24 24 23 23 22 22 22 21 20 17 16 15 15 15 15 15 16 16 16 16 16 16 16 16 15 15 15 15 15 15 15 15 15 15 15 15
24 24 23 24 23 24 24 24 24 23 21 21 21 20 19 18 16 16 15 14 14 14 14 15 15 15 15 15 15 15 15 14 14 15 15 15 15 14 14 15 15 14 14 14
24 24 24 24 24 22 22 22 21 21 21 20 20 19 17 17 16 15 14 14 14 14 14 14 14 14 14 14 14 14 13 13 13 13 13 13 13 13 13 13 13 13 13 13
23 22 23 23 23 22 21 20 20 20 20 19 18 17 17 16 15 15 14 14 13 13 13 13 13 13 12 13 13 12 12 12 12 12 12 12 12 12 12 12 12 12 12 12
23 22 23 22 23 22 21 20 19 19 18 18 17 17 16 16 15 14 14 13 13 13 13 12 12 12 11 11 11 11 11 11 11 11 11 11 12 11 11 11 11 11 11 10
22 21 22 22 21 21 20 18 18 17 17 17 16 16 15 15 14 14 13 13 13 12 12 12 12 11 11 11 11 11 11 11 11 11 11 11 11 11 11 11 11 11 10 10
Wind_Speed
6 8 7 5 7 9 10 10 10 6 1 5 8 8 5 6 9 10 11 12 12 12 11 11 11 11 11 11 11 11 11 10 9 8 8 8 7 6 6 5 6 5 3 3
8 10 6 6 7 8 9 10 9 4 1 5 7 7 5 6 10 10 11 12 13 13 12 11 12 12 13 13 12 11 11 11 11 9 7 6 6 6 5 5 6 5 4 3
12 7 3 7 9 10 10 9 9 8 4 6 7 5 5 6 8 9 11 12 13 13 14 14 14 14 13 13 13 11 12 12 11 10 8 7 6 5 6 6 6 6 6 4
10 8 7 10 11 10 10 6 6 7 8 5 4 6 3 6 8 10 11 12 13 13 13 14 14 15 14 14 13 12 12 11 11 10 10 10 8 6 6 6 5 7 7 6
10 7 9 12 9 8 7 4 6 7 8 8 3 6 1 5 6 9 11 12 13 13 13 14 15 15 15 14 13 12 12 11 11 11 10 9 8 6 5 5 6 6 7 7
15 11 9 8 5 5 3 4 6 7 7 5 3 5 3 1 3 6 9 11 13 13 13 14 14 14 14 14 13 12 12 11 12 12 11 11 9 7 6 7 6 7 6 6
15 13 8 6 7 5 7 8 7 5 4 3 2 5 3 2 2 4 8 11 13 14 14 15 16 16 15 15 15 14 14 13 13 13 12 12 10 9 9 8 7 7 6 6
12 11 8 7 8 6 6 8 8 9 8 7 1 3 3 2 3 5 7 10 13 15 15 16 17 17 16 17 16 16 16 15 15 14 13 12 11 9 8 8 6 7 5 5
10 8 3 4 4 5 5 7 6 9 9 8 4 2 1 4 5 7 9 11 13 14 16 16 17 17 17 17 17 17 16 15 15 15 13 12 12 10 8 8 8 7 6 6
11 10 6 5 5 4 5 5 5 7 7 7 5 3 2 1 5 8 10 11 13 14 16 16 16 17 17 17 16 17 17 16 16 15 14 12 12 11 10 9 9 7 7 7
10 9 7 7 8 8 6 5 6 6 6 8 7 3 4 2 2 6 9 11 13 14 16 16 16 16 17 17 17 17 17 16 15 15 14 13 12 12 11 10 10 9 9 9
8 7 9 7 3 4 8 8 7 7 6 6 8 3 6 2 1 3 6 9 11 12 14 15 16 16 16 17 17 17 16 17 16 15 14 14 13 12 12 12 11 10 10 10
7 6 8 7 6 7 7 8 8 7 7 8 9 2 6 3 1 2 4 7 9 11 13 14 15 15 16 16 16 17 17 17 16 15 15 14 14 14 13 12 12 11 11 11
5 6 9 9 4 4 7 8 9 10 10 9 9 8 3 3 2 1 3 5 7 10 12 13 13 14 14 15 15 15 16 16 15 15 15 15 15 14 13 13 12 12 12 12
5 7 9 10 7 7 8 9 9 12 12 12 11 10 6 5 4 2 1 4 5 7 9 11 12 12 13 13 14 14 14 14 14 15 15 14 13 13 12 12 12 12 12 13
5 6 7 10 8 8 10 10 11 12 12 12 13 10 3 3 3 3 2 2 3 3 4 6 8 9 10 11 12 13 13 13 13 14 14 12 12 12 13 12 12 12 12 12
8 7 8 10 6 8 11 9 9 10 9 10 10 4 2 2 4 5 4 4 3 2 1 1 2 4 5 7 8 9 10 10 11 11 11 11 11 12 12 12 12 13 13 13
7 7 7 8 6 10 3 2 3 6 6 5 3 1 1 4 6 6 7 6 6 6 5 4 3 2 1 3 4 4 6 7 7 8 9 9 9 10 10 11 12 12 11 12
4 6 7 8 10 9 4 2 2 4 4 1 2 2 5 8 8 8 9 8 8 8 8 7 7 6 5 4 4 5 5 4 4 5 5 6 7 7 8 10 10 10 10 11
5 6 8 7 7 7 1 4 0 4 4 2 2 4 6 8 4 5 7 8 10 10 10 10 9 10 10 8 7 6 6 5 2 1 1 2 3 4 5 6 7 7 8 10
7 6 9 9 8 5 4 3 2 4 1 3 3 4 5 3 5 8 8 9 10 11 11 11 11 11 10 9 9 10 9 7 5 4 3 2 1 2 3 3 4 5 7 8
6 5 6 6 6 2 5 2 2 3 3 3 4 6 8 12 13 11 11 10 10 11 11 11 11 11 10 9 10 11 10 7 6 6 6 5 3 2 1 0 2 3 5 6
4 3 3 3 1 4 2 1 2 1 3 4 6 9 13 14 13 13 12 11 11 11 11 10 11 12 11 11 11 11 8 6 6 7 7 6 4 3 3 2 2 2 3 5
3 0 2 2 1 1 1 1 1 2 4 7 9 12 14 14 14 13 11 11 10 11 10 10 11 11 11 11 11 9 8 7 7 8 7 5 4 4 4 4 3 4 4 5
3 1 3 4 2 1 1 2 2 5 8 11 13 13 13 14 13 12 11 10 10 9 9 9 9 10 10 9 9 9 9 8 8 7 6 5 5 5 4 4 4 5 5 5
4 4 5 4 4 3 2 2 5 8 11 13 14 14 12 12 12 11 10 9 9 9 8 8 9 8 8 8 8 8 8 7 7 6 7 6 6 6 6 6 5 2 5 5
Wind_Direction
227 251 260 313 319 312 308 307 310 325 312 259 269 274 255 208 207 201 196 195 196 198 191 184 183 180 176 172 168 163 161 158 164 165 165 164 166 169 168 164 151 158 142 126
240 245 270 302 299 291 295 299 309 312 251 268 285 277 255 216 213 210 205 203 201 196 187 184 183 179 180 175 172 168 166 169 177 169 165 168 165 178 173 170 160 174 166 161
249 266 298 286 289 299 304 310 321 317 292 239 279 257 203 201 208 209 210 208 205 199 190 185 185 182 177 176 177 176 173 175 179 167 167 162 164 182 178 184 181 184 181 179
253 265 268 280 290 300 303 333 309 295 287 305 288 310 172 189 200 204 206 205 204 199 194 187 186 184 180 179 179 178 176 178 177 178 183 184 192 195 192 195 181 180 189 190
243 251 274 284 298 298 310 322 289 281 283 288 265 296 51 179 211 204 201 200 197 191 190 187 187 185 181 178 178 177 179 180 181 190 187 198 207 201 190 192 178 194 190 197
259 265 274 281 292 284 243 250 249 247 261 282 338 302 334 182 223 199 190 190 190 188 186 185 185 182 181 179 178 180 182 186 187 193 195 206 206 201 195 197 190 201 195 198
243 244 234 242 246 214 233 272 284 282 274 328 43 290 343 47 186 192 184 182 183 185 184 184 185 183 184 183 183 185 187 192 192 196 201 204 203 200 199 205 202 212 202 198
248 247 218 219 247 270 251 275 292 308 316 322 247 299 14 115 164 179 177 176 179 183 185 186 186 185 185 185 187 189 191 194 194 198 202 203 202 207 205 205 212 207 216 207
251 253 178 210 239 259 251 258 297 287 287 291 304 310 163 163 182 181 177 175 180 183 184 184 185 185 186 189 192 194 194 197 199 200 200 202 203 210 204 193 207 210 208 201
251 261 222 180 196 209 272 274 261 278 298 298 298 302 8 135 184 182 182 182 180 182 184 185 186 187 188 190 192 196 198 200 201 201 202 201 201 201 198 203 205 207 204 204
233 248 225 202 228 237 202 224 252 274 290 295 307 343 51 33 186 189 186 184 183 184 185 185 187 189 190 191 192 196 199 201 202 204 203 203 200 198 196 199 200 200 203 200
211 240 248 229 217 275 247 250 243 266 275 266 290 322 88 69 99 186 185 181 183 187 187 187 188 190 193 195 196 198 201 202 204 202 200 201 199 198 198 199 200 200 202 205
176 216 235 216 202 206 228 232 240 255 272 269 276 300 113 93 85 168 184 180 187 191 194 193 192 194 198 200 202 203 204 205 203 200 200 200 200 200 203 202 200 202 204 208
191 228 252 268 281 228 230 230 230 243 260 271 271 289 301 350 344 196 188 192 194 196 200 203 201 203 205 206 206 208 209 207 204 200 200 201 202 202 203 202 202 204 207 210
201 232 245 264 269 259 255 251 238 241 262 278 288 292 317 354 353 342 224 190 190 193 199 207 211 209 211 211 210 210 210 207 204 202 203 204 204 203 203 202 204 206 209 213
201 236 243 248 246 252 256 255 251 251 260 270 279 284 353 30 34 39 44 128 151 176 196 204 211 213 211 212 212 210 210 205 202 205 206 202 202 202 203 203 204 206 211 216
191 214 238 250 239 254 254 254 254 251 257 270 279 299 49 53 53 47 43 52 67 66 60 149 207 217 211 207 203 203 205 200 199 205 206 200 201 202 204 205 205 208 212 215
194 213 233 255 243 253 278 66 282 269 268 268 278 295 107 101 94 68 51 50 54 56 51 45 49 85 140 166 174 181 182 186 195 201 203 200 201 204 206 208 212 214 216 220
206 211 240 247 245 252 214 160 242 263 265 257 223 158 137 138 130 85 59 58 58 58 60 58 54 65 69 82 106 129 140 153 178 193 201 201 203 209 211 214 217 220 223 228
175 214 237 235 252 253 166 106 114 260 232 126 154 164 165 182 189 98 74 69 68 64 64 63 66 70 67 63 75 92 95 98 105 123 170 200 210 221 227 231 233 232 233 239
187 206 230 236 244 253 89 113 209 252 52 96 142 156 165 150 84 109 98 82 76 71 68 67 66 64 63 66 73 73 68 60 54 60 66 61 22 246 246 253 251 251 250 253
223 216 218 232 243 239 108 163 268 32 86 121 134 134 121 110 109 110 104 95 86 80 74 72 70 65 57 60 71 72 62 53 53 60 64 60 46 11 21 318 273 262 261 259
240 294 270 255 348 70 99 40 54 102 133 134 135 128 126 123 119 114 107 98 90 84 79 76 77 73 64 60 64 69 60 51 58 61 59 50 43 37 19 351 307 281 276 281
179 1 272 263 280 51 136 94 128 147 142 137 132 131 130 124 122 117 110 101 92 85 82 80 77 75 69 64 64 64 62 58 56 57 54 45 34 29 23 348 336 325 314 305
358 240 265 259 290 334 84 86 126 129 131 130 128 128 126 124 122 118 110 103 97 92 87 83 80 78 74 69 64 59 54 51 51 48 40 31 28 22 357 350 338 328 327 332
358 322 298 311 13 335 15 81 129 131 129 128 125 121 119 116 116 114 109 106 103 99 93 87 81 75 70 67 63 58 51 43 34 32 22 10 2 1 343 333 326 271 267 257
Height
1514 1511 1505 1501 1501 1502 1501 1501 1500 1497 1498 1501 1500 1500 1500 1505 1509 1511 1514 1517 1519 1522 1524 1527 1529 1533 1536 1539 1542 1546 1549 1552 1555 1558 1561 1563 1566 1568 1569 1570 1570 1570 1570 1570
1510 1506 1500 1501 1501 1501 1499 1500 1496 1495 1498 1500 1498 1497 1497 1501 1505 1507 1510 1513 1516 1519 1522 1524 1527 1530 1534 1536 1540 1544 1547 1551 1555 1557 1560 1562 1565 1567 1569 1569 1569 1569 1570 1570
1506 1499 1499 1501 1499 1498 1495 1496 1496 1497 1496 1497 1498 1495 1495 1498 1502 1505 1507 1510 1512 1515 1518 1521 1524 1527 1531 1534 1538 1542 1545 1549 1553 1556 1559 1562 1563 1566 1567 1568 1568 1569 1569 1569
1500 1496 1499 1498 1495 1495 1496 1492 1495 1496 1497 1493 1497 1499 1491 1492 1497 1500 1503 1505 1508 1511 1514 1517 1521 1524 1528 1532 1536 1540 1544 1547 1550 1554 1558 1560 1563 1565 1566 1567 1568 1567 1568 1568
1496 1494 1496 1496 1493 1493 1493 1494 1494 1494 1494 1495 1492 1496 1488 1489 1491 1493 1497 1501 1504 1508 1511 1514 1518 1522 1526 1530 1534 1538 1542 1545 1549 1552 1556 1559 1562 1563 1565 1565 1565 1566 1567 1567
1492 1491 1493 1492 1492 1493 1494 1494 1493 1492 1489 1499 1493 1496 1491 1482 1486 1487 1493 1498 1502 1505 1509 1513 1517 1520 1524 1528 1532 1536 1539 1543 1547 1550 1554 1556 1559 1561 1562 1563 1564 1564 1566 1566
1492 1488 1488 1491 1491 1492 1493 1495 1499 1499 1498 1496 1490 1492 1488 1480 1482 1485 1490 1495 1499 1503 1507 1511 1515 1518 1522 1525 1530 1534 1537 1541 1544 1548 1551 1554 1556 1557 1559 1560 1562 1563 1564 1564
1492 1491 1484 1486 1488 1488 1489 1491 1504 1512 1504 1493 1487 1490 1481 1480 1483 1486 1489 1493 1497 1501 1505 1509 1512 1516 1520 1523 1527 1531 1535 1538 1542 1545 1549 1551 1553 1555 1557 1558 1560 1561 1562 1563
1486 1488 1483 1485 1486 1486 1489 1487 1483 1492 1492 1496 1487 1481 1476 1479 1482 1485 1488 1491 1495 1499 1503 1507 1511 1514 1518 1521 1525 1529 1532 1536 1539 1543 1545 1548 1550 1552 1554 1554 1556 1558 1558 1560
1478 1488 1481 1485 1486 1488 1486 1484 1489 1492 1504 1505 1492 1485 1482 1479 1480 1482 1485 1489 1493 1497 1501 1505 1509 1512 1516 1519 1523 1526 1530 1533 1536 1539 1542 1545 1546 1548 1550 1552 1553 1554 1555 1556
1476 1486 1483 1484 1486 1482 1489 1489 1488 1486 1490 1502 1501 1490 1475 1477 1478 1480 1483 1487 1491 1495 1498 1502 1506 1510 1514 1517 1521 1524 1527 1530 1533 1536 1538 1541 1543 1545 1546 1548 1549 1551 1552 1552
1476 1480 1482 1480 1478 1480 1480 1481 1485 1494 1493 1491 1494 1487 1474 1476 1477 1479 1481 1486 1489 1493 1497 1500 1504 1508 1511 1515 1518 1521 1523 1526 1529 1532 1534 1536 1539 1541 1542 1544 1546 1547 1548 1549
1477 1483 1490 1488 1487 1484 1481 1479 1480 1483 1487 1488 1492 1486 1474 1476 1478 1481 1482 1485 1489 1492 1495 1498 1502 1505 1508 1511 1514 1517 1520 1522 1525 1527 1529 1532 1534 1536 1538 1541 1542 1544 1545 1546
1477 1478 1483 1488 1482 1475 1479 1478 1479 1482 1483 1483 1482 1478 1472 1474 1478 1481 1483 1486 1488 1491 1493 1496 1499 1502 1505 1507 1510 1513 1516 1518 1521 1523 1525 1527 1530 1532 1534 1536 1538 1540 1541 1542
1476 1477 1475 1472 1470 1471 1473 1473 1475 1479 1478 1479 1476 1473 1473 1476 1480 1482 1484 1485 1487 1489 1491 1493 1496 1498 1501 1503 1506 1508 1511 1514 1516 1518 1520 1523 1525 1528 1530 1532 1534 1535 1537 1538
1474 1476 1476 1476 1470 1470 1473 1471 1471 1473 1473 1473 1473 1473 1474 1480 1482 1484 1484 1485 1486 1488 1489 1491 1493 1495 1497 1499 1501 1504 1506 1508 1510 1513 1515 1518 1521 1523 1525 1527 1529 1531 1532 1534
1471 1476 1479 1475 1469 1473 1477 1468 1468 1469 1469 1472 1473 1473 1477 1480 1484 1486 1486 1486 1487 1488 1488 1489 1490 1492 1493 1495 1497 1499 1501 1504 1506 1508 1511 1513 1516 1518 1520 1522 1524 1526 1527 1529
1471 1474 1474 1473 1478 1490 1469 1465 1466 1468 1468 1470 1472 1475 1479 1483 1487 1488 1489 1489 1488 1488 1488 1489 1489 1490 1491 1493 1494 1496 1498 1501 1503 1505 1507 1509 1511 1514 1516 1518 1519 1521 1522 1523
1471 1473 1473 1474 1477 1474 1466 1467 1468 1470 1471 1471 1474 1477 1481 1484 1485 1489 1491 1491 1490 1490 1489 1489 1489 1490 1490 1491 1493 1495 1497 1498 1500 1502 1504 1506 1508 1510 1511 1513 1514 1515 1517 1517
1472 1472 1472 1474 1482 1482 1469 1467 1470 1471 1474 1473 1475 1477 1480 1482 1480 1489 1493 1492 1492 1491 1490 1490 1491 1490 1490 1491 1493 1494 1496 1497 1499 1500 1501 1503 1504 1506 1507 1508 1509 1510 1511 1511
1470 1472 1471 1473 1477 1468 1465 1469 1471 1477 1477 1475 1477 1478 1480 1482 1485 1492 1493 1494 1493 1493 1492 1492 1492 1491 1492 1493 1494 1494 1495 1496 1497 1498 1498 1499 1501 1502 1502 1503 1504 1505 1505 1505
1465 1467 1472 1472 1477 1475 1469 1470 1471 1475 1476 1477 1479 1481 1483 1486 1490 1492 1494 1495 1495 1495 1495 1495 1494 1494 1494 1494 1495 1494 1495 1496 1497 1496 1497 1497 1498 1499 1498 1498 1499 1499 1499 1499
1463 1464 1462 1465 1469 1471 1471 1472 1475 1476 1477 1479 1481 1483 1485 1488 1492 1494 1496 1497 1498 1498 1497 1498 1497 1496 1496 1496 1495 1495 1497 1498 1498 1497 1496 1496 1497 1497 1496 1496 1496 1496 1495 1495
1464 1468 1466 1467 1466 1471 1473 1475 1476 1477 1478 1480 1482 1485 1488 1490 1493 1496 1498 1499 1500 1500 1500 1500 1500 1500 1499 1498 1498 1498 1498 1498 1498 1496 1496 1496 1496 1496 1494 1494 1494 1493 1492 1491
1465 1467 1466 1468 1469 1472 1473 1475 1477 1478 1479 1481 1484 1487 1490 1492 1495 1498 1499 1501 1502 1502 1503 1503 1503 1503 1502 1501 1501 1500 1499 1499 1498 1498 1497 1497 1496 1495 1493 1492 1490 1489 1488 1487
1469 1471 1470 1468 1473 1474 1476 1477 1478 1479 1481 1484 1486 1490 1493 1495 1498 1500 1502 1503 1504 1505 1505 1505 1505 1505 1504 1503 1503 1502 1501 1500 1500 1499 1498 1497 1496 1494 1493 1491 1489 1486 1485 1482